Temp_Advection
nan nan nan nan nan nan nan nan nan nan nan nan nan nan nan nan nan nan nan nan nan nan nan nan nan nan nan nan nan nan nan nan nan nan nan nan nan nan nan nan nan nan nan
nan 0 -0 -1 -1 1 1 1 1 1 0 0 0 0 0 0 0 0 -0 -0 -1 -0 0 -0 -0 0 0 0 0 -0 0 -0 -0 -0 -0 -0 -0 -0 -0 -0 -0 0 nan
nan 0 -0 -0 0 1 1 1 1 1 0 0 0 0 0 0 0 1 0 0 -0 -0 -0 0 -0 0 0 0 0 0 0 -0 -0 -0 -0 -0 -0 -0 -0 -0 -0 -0 nan
nan -0 0 0 1 1 1 -0 0 -0 0 0 0 0 0 0 0 0 0 0 0 0 0 0 -0 -0 0 0 0 0 0 0 -0 -0 -0 -0 -0 -0 -0 -0 -0 -0 nan
nan -0 0 0 1 0 0 0 0 1 0 0 1 0 0 1 0 0 0 0 0 0 0 0 0 -0 -0 0 0 0 0 0 0 -0 -0 -0 -0 -0 -0 -0 -0 -0 nan
nan 1 0 1 1 0 -0 0 1 1 1 1 0 1 1 1 0 0 0 0 0 0 0 0 0 0 -0 -0 0 0 0 0 0 -0 -0 -0 -0 -0 -0 -0 -0 -0 nan
nan 2 1 1 0 1 0 1 -0 0 1 1 0 0 1 1 0 0 0 0 0 -0 -0 0 0 0 0 -0 0 0 0 0 -0 -0 -0 -0 -0 -0 -0 -0 -0 -0 nan
nan 3 2 2 1 1 0 0 -0 -1 -1 0 0 -1 0 -0 -0 0 -0 -0 -0 -0 0 0 -0 0 0 0 -0 -0 0 0 -0 -0 -0 -0 -0 -0 -0 -0 -0 -0 nan
nan 1 1 1 0 0 -0 0 0 -1 -1 -1 0 -1 -1 -1 -1 -1 -1 -0 -0 -0 -0 -0 0 -0 0 0 0 0 0 0 -0 0 -0 -0 -0 -0 -0 -0 -0 -0 nan
nan 1 -0 -1 1 -0 0 1 1 1 -0 -1 -2 -1 -2 -1 -1 -1 -1 -1 -1 -0 -0 -0 -0 -0 0 0 0 0 0 0 0 -0 -0 -0 -0 0 0 -0 -0 -0 nan
nan 1 -0 -0 -0 -1 0 0 -1 -1 -1 -1 -2 -1 -1 -0 -1 -1 -1 -1 -1 -0 -0 0 -0 -0 0 0 -0 0 0 0 0 0 -0 0 0 -0 -0 -0 -0 -0 nan
nan -0 0 -1 -0 0 0 -1 -1 -1 -1 -0 -1 -2 -1 -1 -0 -0 -0 -1 -0 -0 0 0 -0 0 0 0 -0 0 0 0 0 0 0 0 0 0 0 -0 -0 -0 nan
nan -1 -0 -0 1 1 1 0 -1 -0 1 0 -1 -0 -0 -0 0 -0 0 0 0 0 0 -1 -0 0 0 -0 0 0 0 0 0 0 0 0 0 0 0 0 -0 -0 nan
nan 0 0 -0 0 1 0 -0 1 2 1 -2 -1 0 0 0 0 0 0 0 0 0 -1 -0 0 -0 -0 0 0 0 0 0 0 0 0 0 0 0 0 0 -0 -0 nan
nan 1 0 0 1 1 0 1 1 -1 -1 0 2 1 1 0 0 0 0 0 0 -0 -0 0 0 0 0 0 0 0 0 0 0 0 0 0 0 0 0 0 0 -0 nan
nan 0 0 1 1 0 1 1 0 -0 1 1 2 1 -0 1 0 -0 0 0 0 0 0 0 0 0 0 0 0 0 0 0 0 0 0 0 0 0 0 0 0 0 nan
nan 1 1 1 0 0 1 0 0 -0 -0 1 1 -1 -0 1 1 -0 -0 0 0 0 0 0 0 0 0 0 0 0 0 0 0 0 0 0 0 1 0 0 0 -0 nan
nan 1 1 1 -0 0 0 0 0 -0 -1 0 -1 -0 1 2 1 -1 0 0 0 0 0 0 0 0 0 0 0 0 0 0 0 0 -0 0 0 0 0 0 0 0 nan
nan 1 0 0 0 0 -0 1 0 -0 0 1 1 1 1 1 -1 -1 0 0 1 0 0 0 0 0 0 0 0 0 0 0 1 0 -0 -0 0 0 0 0 0 0 nan
nan 0 0 0 0 -0 1 1 0 0 2 1 1 1 1 -0 -1 -0 0 0 1 0 0 0 0 0 0 0 0 0 0 0 1 0 -0 -0 0 0 0 0 0 0 nan
nan 0 0 -0 -0 0 0 0 0 1 1 1 1 0 0 0 1 0 0 1 1 0 -0 0 0 0 0 0 0 0 0 0 0 0 -0 0 1 0 0 0 0 0 nan
nan 0 0 0 0 0 0 0 0 1 1 1 0 1 1 2 1 0 1 1 0 0 1 0 0 0 0 1 1 0 0 0 0 -0 -0 1 0 -0 0 0 0 0 nan
nan 0 -0 0 0 0 -0 0 1 1 1 1 0 1 1 1 0 1 0 1 1 0 -0 -0 0 1 0 1 0 0 1 0 0 0 -0 0 -0 -0 0 0 0 0 nan
nan -0 1 1 0 -0 -0 1 1 2 2 1 1 1 2 1 1 1 0 0 -0 -0 -0 0 1 0 1 1 0 1 0 0 0 1 1 -0 -1 -0 0 0 0 0 nan
nan 0 0 0 0 1 1 2 2 3 2 1 1 2 2 1 1 0 -0 -1 -1 -1 1 1 -0 0 0 0 1 1 1 1 0 0 1 -0 -1 -1 -1 -0 0 0 nan
nan nan nan nan nan nan nan nan nan nan nan nan nan nan nan nan nan nan nan nan nan nan nan nan nan nan nan nan nan nan nan nan nan nan nan nan nan nan nan nan nan nan nan
Wind_Speed
41 41 38 34 31 27 24 32 35 33 29 25 21 17 16 16 17 16 17 17 16 15 15 14 13 13 12 12 11 11 11 10 10 10 11 11 11 11 10 10 10 10 10
43 42 41 38 33 29 27 33 36 34 31 27 23 19 16 16 17 16 17 17 15 15 14 13 13 12 11 10 10 10 10 10 9 9 9 9 9 10 9 9 9 10 10
45 43 42 40 36 32 29 35 38 35 32 28 23 20 18 17 17 16 16 16 16 15 14 13 12 11 11 10 9 8 8 8 8 8 8 8 8 8 8 8 9 9 9
47 46 44 43 39 36 33 38 41 37 33 29 25 21 19 18 18 17 16 15 14 14 13 12 11 10 10 9 8 7 7 7 6 6 7 7 7 7 7 7 8 8 9
53 51 47 45 43 40 36 39 42 39 36 31 26 23 20 18 19 19 18 16 14 12 9 9 8 9 9 8 6 5 5 5 5 5 5 6 6 7 7 8 9 11 12
58 56 53 49 48 45 41 40 44 41 37 34 30 26 23 20 20 20 19 17 16 14 12 12 10 8 7 7 6 4 3 3 3 3 4 5 6 7 8 9 11 12 14
62 62 59 54 51 49 45 42 44 43 40 36 35 29 24 21 20 20 20 18 17 16 14 13 12 10 8 7 6 4 2 0 1 2 3 5 7 8 9 10 11 13 14
61 63 61 60 54 53 49 43 44 45 42 40 36 33 22 21 22 23 22 21 19 18 16 15 13 12 10 8 7 6 4 3 2 3 3 5 6 8 10 12 14 14 15
30 40 51 55 57 55 50 46 44 44 47 44 38 23 15 12 26 26 25 23 23 21 19 17 16 14 13 11 9 7 6 5 4 4 5 5 6 8 10 11 12 14 15
33 27 45 51 56 54 50 45 43 43 46 47 43 37 22 15 20 17 28 27 26 25 22 21 19 17 15 13 11 9 9 6 6 5 6 7 8 9 11 11 13 14 15
30 30 36 38 34 36 31 45 42 42 42 44 45 45 27 19 20 16 24 33 30 28 25 24 21 19 18 16 12 12 10 9 7 7 8 9 8 10 11 13 15 17 18
48 49 47 44 44 40 40 39 39 37 38 43 44 43 40 30 25 23 17 29 34 30 29 25 25 22 20 16 15 14 13 11 9 9 9 10 10 12 13 15 18 20 22
51 56 56 51 50 47 47 44 44 37 43 44 42 44 42 33 24 20 16 15 28 30 27 28 27 24 22 18 17 15 14 13 12 11 11 12 13 14 15 17 20 22 23
54 57 60 50 48 52 50 51 49 46 48 46 40 43 43 39 31 22 19 15 15 26 30 28 28 26 23 20 19 17 16 15 13 13 13 14 15 16 17 20 21 24 25
53 59 56 54 50 55 56 56 50 51 50 46 46 44 44 41 35 30 21 17 15 15 27 28 22 26 23 21 20 17 17 16 14 14 15 15 17 18 19 21 23 26 28
53 55 56 57 54 53 58 57 50 51 53 51 51 47 44 42 38 32 26 19 17 14 12 25 23 17 24 21 20 18 17 16 15 15 16 17 18 20 21 23 25 27 30
55 56 57 61 54 56 53 54 51 51 52 53 52 48 44 41 39 37 29 23 21 17 14 21 19 19 18 20 19 18 16 15 15 16 17 17 20 22 23 25 26 29 31
53 56 58 58 54 54 58 56 55 48 50 52 50 50 47 44 44 38 33 28 25 21 17 15 20 18 18 17 17 16 15 15 16 17 17 20 22 24 24 27 28 31 32
53 56 57 56 54 53 56 60 57 52 53 52 50 52 47 44 45 40 37 33 29 25 21 19 18 19 18 18 17 16 15 16 18 18 19 21 23 24 26 27 29 30 33
52 52 55 55 55 54 55 56 57 55 55 54 55 54 49 47 44 41 38 36 33 29 26 24 21 20 20 18 18 17 17 17 19 20 21 21 24 24 25 27 30 32 33
50 50 52 55 56 56 58 58 57 57 57 57 55 52 51 47 43 41 40 40 39 33 30 26 25 23 22 21 19 18 19 19 20 23 22 24 25 23 24 28 31 31 32
51 53 53 54 55 57 56 56 58 53 57 57 55 53 52 47 41 39 39 38 38 37 33 29 27 25 23 20 20 21 22 21 22 23 24 23 24 23 26 28 29 30 30
51 50 49 50 51 54 54 53 54 54 54 52 52 53 52 49 47 41 39 36 35 33 29 24 25 25 22 21 21 23 24 22 23 24 26 27 26 25 25 25 27 26 28
52 52 51 49 48 50 50 47 46 49 51 52 52 53 54 51 48 44 41 38 36 33 30 29 29 25 24 24 23 22 23 23 24 24 25 28 27 26 24 21 23 22 24
48 49 48 50 52 52 51 49 48 48 50 51 51 53 50 47 48 43 40 37 35 33 32 30 28 26 25 24 23 21 22 21 22 23 23 24 27 27 24 20 18 19 28
37 46 48 46 46 48 48 47 48 50 51 51 49 46 44 47 46 41 40 38 36 33 31 30 29 27 25 23 23 20 18 20 20 22 20 17 21 23 19 16 18 21 24
Wind_Direction
190 189 192 188 197 191 184 172 175 181 182 182 181 178 170 171 169 163 152 148 142 140 136 136 133 129 123 117 111 106 96 87 80 76 69 64 58 55 50 47 44 41 38
197 197 197 198 200 194 187 177 179 184 184 183 182 179 177 176 174 170 161 155 153 148 146 145 139 134 128 120 115 106 102 93 82 72 66 61 57 52 46 41 34 29 24
200 201 200 201 201 196 189 178 180 185 185 183 184 181 180 178 178 175 170 167 161 155 155 152 147 140 137 131 119 110 104 97 88 80 68 59 50 45 41 34 28 20 16
207 202 203 202 200 198 193 184 183 186 187 185 184 184 182 180 181 181 178 173 171 167 166 159 155 152 144 139 132 124 107 94 83 66 62 55 46 35 30 27 21 12 5
207 207 207 205 200 199 196 187 185 190 188 186 186 183 183 184 186 186 184 180 177 172 167 164 169 165 159 150 143 130 115 101 84 70 49 38 29 22 16 9 1 360 358
212 209 207 205 200 199 198 190 189 188 191 188 183 182 183 187 191 192 192 188 188 184 181 177 174 178 176 163 155 152 136 108 81 57 34 20 10 6 4 4 360 356 353
215 208 207 202 203 201 201 192 189 190 190 194 184 179 181 188 192 196 197 197 195 195 193 194 187 187 190 189 176 179 193 157 36 4 16 3 360 355 355 355 352 349 347
213 202 204 201 204 200 201 193 191 188 195 195 191 177 174 191 197 199 199 199 201 203 202 201 199 195 195 211 204 197 204 231 274 316 334 346 351 351 349 348 348 349 350
187 202 198 192 193 200 201 199 197 198 195 196 198 185 171 196 200 207 205 205 206 208 207 207 207 204 203 201 221 225 220 226 254 280 305 320 337 347 346 346 347 350 352
232 238 219 211 212 197 201 204 203 204 204 199 196 202 197 196 185 199 210 212 211 211 211 213 213 211 212 211 215 230 237 232 248 273 291 305 329 334 333 337 341 342 343
200 208 205 205 206 210 225 212 205 211 214 211 206 202 200 195 196 193 205 211 215 213 213 215 217 216 216 216 217 232 239 248 256 271 283 293 311 316 323 328 330 334 337
196 195 196 204 209 214 214 208 204 215 218 217 216 211 208 202 202 202 209 215 219 217 217 216 219 219 221 217 223 230 242 249 258 269 279 289 300 309 316 321 323 326 331
201 198 202 207 207 208 203 208 205 214 217 216 217 217 215 215 217 213 219 223 219 221 221 222 222 220 224 220 226 229 240 248 254 266 275 284 295 303 311 315 317 321 323
203 206 206 212 213 212 207 207 210 213 211 216 210 216 218 218 219 217 224 226 219 222 220 224 223 223 223 223 227 229 237 248 258 268 274 283 292 300 307 310 313 315 316
208 208 211 211 209 212 212 214 213 211 210 211 213 211 214 215 218 221 221 222 226 226 225 222 223 225 223 225 226 231 237 245 256 267 274 284 289 296 303 305 309 311 314
214 212 212 212 210 216 216 219 219 217 216 215 215 211 211 213 215 219 220 223 222 226 234 217 218 222 218 221 225 231 237 247 256 263 273 283 291 294 299 303 308 310 312
216 213 213 211 213 219 216 219 219 218 221 221 218 213 211 213 215 218 216 219 214 214 218 207 210 212 209 215 222 230 238 246 255 265 274 285 289 294 298 303 307 307 310
221 217 215 214 215 218 217 217 219 221 219 219 217 213 212 212 215 216 216 215 216 216 218 217 213 213 217 217 221 229 239 248 259 266 277 283 289 293 300 301 304 307 309
219 217 217 215 216 218 219 218 219 218 218 223 220 216 218 216 215 215 213 212 214 215 218 219 218 218 222 223 229 236 246 256 265 270 277 283 289 296 297 300 302 304 310
218 218 217 217 217 219 219 222 223 223 221 222 223 225 222 219 219 216 216 216 219 219 220 221 224 228 231 235 241 246 254 264 269 274 279 287 290 290 296 299 302 309 313
220 221 220 220 220 221 222 223 223 228 225 225 225 226 224 222 222 222 219 218 221 224 222 224 230 233 239 244 255 261 266 268 273 276 284 288 287 294 298 300 303 308 310
219 219 219 219 220 221 223 226 226 229 229 229 229 225 222 221 218 222 222 223 227 226 226 231 237 240 246 252 260 266 270 270 274 280 285 286 288 294 298 301 304 307 309
217 215 218 219 221 222 223 226 229 230 231 230 228 227 222 218 217 215 222 223 225 230 235 240 244 247 253 262 261 266 268 273 277 282 288 289 292 297 297 301 304 308 310
219 218 217 219 221 224 222 225 227 229 230 229 228 229 225 221 214 209 217 219 220 222 225 231 236 245 250 253 260 266 268 276 279 283 287 289 296 300 303 305 309 308 313
217 213 217 218 222 223 224 226 225 225 224 226 228 229 223 215 211 207 216 217 220 222 227 232 237 240 247 252 260 263 268 271 280 282 283 289 298 303 307 314 309 314 320
208 216 213 216 220 223 223 222 222 221 220 222 225 226 220 211 199 202 208 215 217 221 226 230 235 239 245 251 253 260 265 272 274 280 288 291 296 307 316 312 314 321 320
Height
1519 1523 1528 1531 1535 1540 1544 1547 1550 1552 1556 1560 1564 1567 1569 1571 1572 1574 1575 1576 1579 1580 1581 1582 1583 1584 1585 1585 1586 1586 1587 1587 1588 1588 1587 1586 1585 1585 1584 1583 1582 1581 1579
1513 1518 1523 1526 1532 1538 1542 1546 1548 1551 1555 1560 1564 1567 1570 1572 1574 1575 1576 1577 1579 1581 1582 1583 1585 1586 1587 1588 1588 1588 1588 1588 1589 1590 1589 1588 1587 1587 1586 1585 1584 1583 1582
1509 1514 1518 1524 1528 1534 1540 1545 1547 1551 1555 1559 1564 1566 1569 1571 1574 1576 1577 1578 1579 1581 1582 1584 1585 1587 1587 1588 1589 1590 1589 1589 1590 1590 1591 1590 1590 1588 1587 1587 1586 1585 1583
1504 1509 1515 1520 1526 1531 1536 1541 1544 1548 1553 1558 1562 1566 1569 1570 1573 1576 1578 1579 1581 1582 1583 1585 1586 1588 1589 1589 1589 1590 1590 1590 1590 1592 1592 1591 1591 1590 1589 1588 1587 1586 1584
1496 1503 1510 1515 1522 1526 1532 1537 1540 1545 1549 1556 1561 1565 1568 1570 1573 1575 1578 1580 1582 1583 1584 1586 1588 1588 1590 1590 1591 1591 1591 1590 1591 1591 1593 1593 1592 1591 1590 1589 1587 1586 1583
1490 1495 1501 1508 1515 1520 1526 1533 1537 1544 1548 1552 1558 1563 1566 1569 1572 1574 1577 1579 1581 1583 1584 1585 1587 1589 1590 1591 1592 1593 1593 1592 1592 1591 1592 1594 1593 1592 1590 1587 1586 1584 1582
1483 1486 1490 1500 1508 1515 1520 1526 1532 1539 1545 1550 1554 1561 1564 1568 1571 1573 1575 1578 1579 1581 1583 1585 1585 1587 1590 1591 1591 1592 1593 1593 1592 1592 1592 1592 1593 1592 1590 1587 1585 1583 1580
1476 1472 1483 1490 1499 1508 1515 1520 1526 1533 1543 1546 1551 1556 1562 1568 1568 1570 1572 1574 1577 1579 1581 1582 1584 1585 1588 1591 1591 1591 1592 1592 1592 1592 1591 1591 1590 1590 1590 1587 1585 1582 1580
1462 1482 1476 1483 1482 1499 1507 1515 1521 1527 1533 1540 1546 1549 1555 1557 1562 1566 1568 1571 1573 1576 1578 1581 1582 1583 1585 1587 1590 1590 1590 1591 1591 1590 1591 1589 1589 1588 1588 1586 1583 1581 1579
1468 1470 1483 1481 1488 1488 1503 1511 1520 1526 1530 1534 1541 1545 1547 1549 1554 1559 1564 1567 1569 1571 1574 1578 1580 1581 1582 1584 1587 1588 1590 1589 1589 1588 1589 1588 1587 1587 1585 1584 1582 1580 1577
1458 1468 1477 1483 1487 1491 1502 1507 1514 1521 1529 1534 1535 1538 1543 1546 1549 1551 1553 1560 1564 1567 1569 1573 1577 1578 1580 1581 1583 1586 1586 1588 1587 1587 1586 1586 1585 1584 1583 1582 1580 1579 1576
1457 1463 1464 1472 1478 1487 1495 1502 1507 1516 1523 1530 1532 1536 1538 1540 1544 1547 1550 1554 1558 1562 1565 1569 1572 1574 1577 1577 1580 1582 1584 1585 1585 1585 1584 1585 1583 1582 1582 1581 1579 1576 1574
1448 1453 1460 1468 1473 1478 1486 1495 1498 1503 1513 1519 1524 1532 1536 1539 1543 1545 1548 1552 1554 1557 1561 1565 1569 1570 1573 1573 1577 1579 1581 1582 1582 1582 1582 1581 1581 1580 1579 1577 1576 1573 1570
1440 1447 1453 1461 1467 1472 1479 1485 1490 1495 1503 1510 1512 1523 1531 1536 1540 1542 1546 1549 1549 1552 1556 1560 1564 1567 1569 1571 1574 1575 1577 1579 1579 1580 1579 1579 1578 1577 1575 1574 1572 1569 1566
1434 1440 1447 1453 1460 1466 1472 1479 1483 1489 1495 1502 1510 1515 1525 1530 1534 1539 1542 1545 1547 1548 1550 1555 1560 1563 1566 1568 1570 1572 1575 1575 1575 1577 1577 1577 1576 1574 1572 1570 1568 1565 1561
1425 1432 1440 1446 1452 1459 1466 1472 1478 1486 1490 1495 1505 1512 1517 1524 1529 1533 1537 1540 1543 1546 1549 1551 1557 1559 1562 1564 1566 1568 1571 1571 1573 1573 1573 1573 1573 1571 1569 1566 1564 1560 1557
1416 1424 1434 1440 1447 1452 1459 1466 1473 1478 1482 1489 1500 1506 1511 1519 1523 1529 1530 1536 1540 1543 1546 1550 1554 1557 1558 1560 1561 1565 1566 1568 1570 1570 1569 1568 1569 1567 1566 1563 1559 1555 1550
1408 1416 1426 1433 1439 1445 1452 1458 1465 1470 1477 1485 1492 1499 1505 1513 1519 1521 1523 1531 1536 1541 1545 1549 1552 1554 1556 1558 1559 1562 1563 1564 1566 1566 1565 1564 1564 1563 1561 1558 1554 1550 1546
1402 1410 1419 1425 1431 1437 1445 1452 1458 1465 1472 1478 1484 1493 1499 1506 1511 1514 1518 1525 1532 1537 1541 1546 1549 1552 1553 1554 1556 1558 1559 1560 1561 1562 1562 1560 1560 1558 1556 1552 1548 1543 1541
1396 1403 1410 1417 1425 1432 1438 1446 1452 1459 1464 1471 1478 1485 1491 1498 1505 1509 1514 1521 1528 1531 1536 1542 1544 1548 1550 1551 1553 1554 1554 1555 1556 1557 1557 1556 1555 1553 1550 1546 1542 1538 1534
1389 1396 1403 1410 1416 1423 1429 1436 1443 1451 1456 1462 1469 1477 1485 1493 1500 1508 1511 1516 1523 1528 1532 1535 1540 1542 1544 1546 1549 1551 1551 1550 1550 1550 1550 1550 1549 1548 1544 1541 1536 1533 1530
1379 1387 1393 1399 1406 1413 1421 1428 1436 1443 1448 1454 1459 1469 1477 1487 1495 1503 1508 1512 1519 1523 1528 1531 1535 1537 1539 1542 1545 1547 1545 1546 1545 1545 1544 1544 1544 1543 1539 1535 1531 1528 1523
1371 1376 1384 1391 1397 1405 1412 1421 1428 1435 1441 1445 1452 1459 1467 1477 1486 1495 1503 1508 1514 1519 1524 1527 1531 1534 1536 1538 1540 1539 1542 1541 1540 1538 1536 1536 1537 1537 1533 1530 1526 1522 1517
1363 1369 1376 1383 1390 1397 1405 1413 1420 1428 1432 1437 1443 1449 1457 1468 1476 1487 1494 1501 1507 1511 1517 1521 1525 1529 1530 1532 1533 1534 1536 1535 1534 1533 1532 1530 1530 1528 1527 1525 1521 1517 1514
1358 1360 1368 1376 1382 1390 1397 1405 1413 1418 1423 1428 1434 1441 1449 1459 1469 1479 1487 1495 1501 1505 1511 1516 1519 1521 1523 1526 1527 1529 1530 1530 1529 1527 1527 1527 1524 1520 1520 1520 1516 1513 1507
1350 1355 1361 1368 1376 1383 1389 1397 1403 1408 1413 1419 1426 1434 1442 1452 1462 1472 1480 1487 1493 1499 1504 1508 1510 1514 1518 1520 1523 1524 1523 1523 1524 1523 1523 1523 1521 1517 1516 1515 1513 1508 1503